Location: Morlupo
(42.1333°N, 12.5000°E)
Time: 03:42:49
(UTC+00:00)

Ariane Rocket - Pass Details

Date: 25 January 2021
Orbit: 760 x 770 km, 98.7° (Epoch: 03 March)

Event Time Altitude Azimuth Distance (km) Brightness Sun altitude
Exits shadow 18:23:26 12° 10° (N) 2,190 5.2 -23.6°
Drops below altitude 10° 18:23:48 10° 7° (N) 2,316 5.4 -23.7°
Sets 18:26:22 0° 357° (N) 3,248 6.2 -24.1°
